Weather History for KIBM - October, 2012

Change the Weather History Date:

Saturday, October 13, 2012

  Actual Average (KSNY) Record (KSNY)
Temperature  
Mean Temperature 50 °F 51 °F  
Max Temperature 61 °F 66 °F 88 °F (1991)
Min Temperature 39 °F 36 °F 13 °F (1969)
Degree Days  
Heating Degree Days 15 14  
Month to date heating degree days 154  
Since 1 July heating degree days 294  
Cooling Degree Days 0 0  
Month to date cooling degree days 1  
Year to date cooling degree days 827  
Moisture  
Dew Point 41 °F    
Average Humidity 71    
Maximum Humidity 92    
Minimum Humidity 43    
Precipitation  
Precipitation 0.03 in 0.04 in 0.84 in (1957)
Month to date precipitation 0.52  
Year to date precipitation 16.93  
Sea Level Pressure  
Sea Level Pressure 29.88 in    
Wind  
Wind Speed 13 mph (NW)    
Max Wind Speed 26 mph    
Max Gust Speed 36 mph    
Visibility 10 miles    
Events Rain , Thunderstorm    
T = Trace of Precipitation, MM = Missing Value Source: NWS Daily Summary

Daily Weather History Graph

Daily Weather History Graph

Search for Another Location

Airport or City:

Trip Planner

Search our weather history database for the weather conditions in past years. The results will help you decide how hot, cold, wet, or windy it might be!

Date:

Astronomy

Oct. 13, 2012 Rise Set
Actual Time 8:04 AM CDT 7:16 PM CDT
Civil Twilight 7:37 AM CDT 7:43 PM CDT
Nautical Twilight 7:05 AM CDT 8:15 PM CDT
Astronomical Twilight 6:33 AM CDT 8:47 PM CDT
Moon 5:56 AM CDT (10/13) 6:01 PM CDT (10/13)
Length of Visible Light 12h 06m
Length of Day
11h 11m
Waning Crescent, 5% of the Moon is Illuminated
Oct 13
Waning Crescent
Oct 15
New
Oct 21
First Quarter
Oct 29
Full
Nov 6
Last Quarter

Hourly Weather History & Observations

Time (CDT) Temp. Windchill Dew Point Humidity Pressure Visibility Wind Dir Wind Speed Gust Speed Precip Events Conditions
12:18 AM 46.4 °F 43.5 °F 42.8 °F 87% 29.84 in 10.0 mi WSW 5.8 mph - N/A   Clear
12:55 AM 46.6 °F - 41.9 °F 84% 29.84 in 10.0 mi WSW 8.1 mph - N/A   Clear
1:35 AM 44.2 °F 39.7 °F 40.3 °F 86% 29.84 in 10.0 mi WSW 8.1 mph - N/A   Clear
1:55 AM 42.3 °F 37.9 °F 39.2 °F 89% 29.84 in 10.0 mi WSW 6.9 mph - N/A   Clear
2:15 AM 39.9 °F 35.1 °F 37.4 °F 91% 29.84 in 10.0 mi West 6.9 mph - N/A   Clear
2:35 AM 42.4 °F 37.0 °F 39.0 °F 88% 29.84 in 10.0 mi West 9.2 mph - N/A   Scattered Clouds
2:55 AM 45.0 °F 40.1 °F 40.1 °F 83% 29.83 in 10.0 mi West 9.2 mph - N/A   Scattered Clouds
3:15 AM 45.5 °F 40.8 °F 39.6 °F 80% 29.83 in 10.0 mi West 9.2 mph - N/A   Scattered Clouds
3:35 AM 42.8 °F 37.5 °F 38.8 °F 86% 29.82 in 10.0 mi WNW 9.2 mph - N/A   Clear
3:55 AM 44.2 °F 39.7 °F 39.2 °F 82% 29.82 in 10.0 mi West 8.1 mph - N/A   Scattered Clouds
4:15 AM 43.9 °F 38.3 °F 39.4 °F 84% 29.81 in 10.0 mi WNW 10.4 mph - N/A   Scattered Clouds
4:35 AM 43.9 °F 39.3 °F 39.6 °F 85% 29.81 in 10.0 mi WNW 8.1 mph - N/A   Mostly Cloudy
4:55 AM 45.3 °F 40.1 °F 40.5 °F 83% 29.80 in 10.0 mi WNW 10.4 mph - N/A   Mostly Cloudy
5:15 AM 44.1 °F 39.5 °F 39.4 °F 84% 29.80 in 10.0 mi WNW 8.1 mph - N/A   Scattered Clouds
5:35 AM 43.0 °F 36.8 °F 39.0 °F 86% 29.80 in 10.0 mi West 11.5 mph - N/A   Clear
5:55 AM 44.8 °F 38.7 °F 38.7 °F 79% 29.80 in 10.0 mi WNW 12.7 mph - N/A   Clear
6:15 AM 46.6 °F - 37.8 °F 71% 29.80 in 10.0 mi WNW 17.3 mph 23.0 mph N/A   Clear
6:35 AM 48.4 °F - 37.4 °F 66% 29.80 in 10.0 mi WNW 20.7 mph - N/A   Clear
6:55 AM 49.5 °F - 37.0 °F 62% 29.81 in 10.0 mi WNW 20.7 mph 29.9 mph N/A   Clear
7:15 AM 49.3 °F - 37.0 °F 63% 29.82 in 10.0 mi WNW 21.9 mph - N/A   Scattered Clouds
7:35 AM 48.7 °F - 37.0 °F 64% 29.83 in 10.0 mi WNW 25.3 mph 32.2 mph N/A   Clear
7:55 AM 49.3 °F - 37.6 °F 64% 29.83 in 10.0 mi WNW 23.0 mph 34.5 mph N/A   Mostly Cloudy
8:15 AM 49.1 °F - 37.8 °F 65% 29.83 in 10.0 mi WNW 26.5 mph 33.4 mph N/A   Overcast
8:55 AM 48.4 °F - 38.1 °F 68% 29.84 in 10.0 mi WNW 26.5 mph 34.5 mph N/A   Mostly Cloudy
9:35 AM 49.5 °F - 38.1 °F 65% 29.85 in 10.0 mi WNW 26.5 mph 35.7 mph N/A   Mostly Cloudy
9:55 AM 49.3 °F - 41.7 °F 75% 29.84 in 10.0 mi NW 23.0 mph 29.9 mph N/A   Overcast
10:35 AM 50.4 °F - 40.3 °F 68% 29.87 in 10.0 mi NW 18.4 mph 28.8 mph N/A   Overcast
10:55 AM 48.4 °F - 41.7 °F 78% 29.87 in 10.0 mi WNW 18.4 mph 27.6 mph N/A Rain Rain
11:15 AM 48.2 °F - 42.8 °F 82% 29.86 in 10.0 mi WNW 24.2 mph 31.1 mph N/A   Light Drizzle
11:35 AM 48.9 °F - 43.9 °F 83% 29.86 in 10.0 mi NW 18.4 mph 24.2 mph N/A Rain , Thunderstorm Rain
11:55 AM 48.9 °F - 44.6 °F 85% 29.86 in 10.0 mi NW 16.1 mph 23.0 mph N/A   Drizzle
12:15 PM 49.1 °F - 45.3 °F 87% 29.87 in 10.0 mi NNW 18.4 mph 25.3 mph N/A Rain Light Rain
12:35 PM 49.1 °F - 46.4 °F 90% 29.87 in 10.0 mi NW 17.3 mph 24.2 mph 0.01 in Rain Light Rain
12:55 PM 50.4 °F - 47.7 °F 90% 29.87 in 10.0 mi NNW 15.0 mph 19.6 mph 0.01 in Rain Light Rain
1:15 PM 50.2 °F - 47.7 °F 91% 29.88 in 10.0 mi NNW 19.6 mph 24.2 mph N/A Rain Light Rain
1:35 PM 50.5 °F - 48.2 °F 92% 29.89 in 10.0 mi NNW 15.0 mph 23.0 mph 0.01 in Rain Light Rain
1:55 PM 51.1 °F - 48.4 °F 90% 29.88 in 10.0 mi NNW 16.1 mph 20.7 mph 0.02 in Rain Rain
2:15 PM 51.8 °F - 48.2 °F 88% 29.88 in 10.0 mi NNW 15.0 mph 21.9 mph N/A   Drizzle
2:35 PM 53.1 °F - 48.9 °F 86% 29.87 in 10.0 mi NNW 16.1 mph 21.9 mph N/A   Light Drizzle
2:55 PM 52.7 °F - 48.7 °F 86% 29.87 in 10.0 mi NNW 15.0 mph 24.2 mph N/A   Drizzle
3:35 PM 56.5 °F - 46.0 °F 68% 29.86 in 10.0 mi NNW 20.7 mph - N/A   Overcast
4:15 PM 59.4 °F - 38.3 °F 46% 29.86 in 10.0 mi NNE 18.4 mph 26.5 mph N/A Rain Light Rain
4:35 PM 61.9 °F - 39.7 °F 44% 29.88 in 10.0 mi North 17.3 mph 20.7 mph N/A   Mostly Cloudy
4:55 PM 61.0 °F - 41.0 °F 48% 29.89 in 10.0 mi NNW 16.1 mph 20.7 mph N/A   Scattered Clouds
5:15 PM 59.5 °F - 43.2 °F 55% 29.90 in 10.0 mi NNW 15.0 mph 18.4 mph N/A   Clear
5:35 PM 60.3 °F - 42.8 °F 53% 29.90 in 10.0 mi NW 13.8 mph - N/A   Clear
5:55 PM 60.8 °F - 42.8 °F 52% 29.90 in 10.0 mi NW 10.4 mph - N/A   Clear
6:15 PM 60.4 °F - 44.1 °F 55% 29.91 in 10.0 mi WNW 12.7 mph - N/A   Clear
6:35 PM 58.3 °F - 43.9 °F 59% 29.92 in 10.0 mi WNW 8.1 mph - N/A   Scattered Clouds
7:35 PM 54.7 °F - 42.8 °F 64% 29.94 in 10.0 mi WNW 8.1 mph - N/A   Mostly Cloudy
7:55 PM 54.7 °F - 41.4 °F 61% 29.94 in 10.0 mi NW 10.4 mph - N/A   Scattered Clouds
8:15 PM 55.4 °F - 37.6 °F 51% 29.95 in 10.0 mi NNW 11.5 mph - N/A   Scattered Clouds
8:55 PM 53.1 °F - 36.0 °F 52% 29.97 in 10.0 mi North 11.5 mph - N/A   Scattered Clouds
9:15 PM 54.5 °F - 34.3 °F 47% 29.98 in 10.0 mi NNW 10.4 mph - N/A   Scattered Clouds
9:35 PM 53.6 °F - 35.1 °F 50% 30.00 in 10.0 mi NNW 11.5 mph - N/A   Scattered Clouds
9:55 PM 52.9 °F - 35.1 °F 51% 30.00 in 10.0 mi North 10.4 mph - N/A   Clear
10:15 PM 53.4 °F - 34.9 °F 49% 30.02 in 10.0 mi North 12.7 mph - N/A   Scattered Clouds
10:55 PM 56.5 °F - 34.0 °F 43% 30.04 in 10.0 mi North 13.8 mph 25.3 mph N/A   Overcast
11:15 PM 56.3 °F - 34.2 °F 43% 30.04 in 10.0 mi North 10.4 mph - N/A   Overcast
11:35 PM 54.0 °F - 35.4 °F 50% 30.05 in 10.0 mi North 9.2 mph - N/A   Overcast
11:55 PM 52.2 °F - 36.0 °F 54% 30.07 in 10.0 mi WNW 12.7 mph - N/A   Mostly Cloudy